QB50P2

Last updated on Sat Aug 15 2026 00:03:44 GMT+0000 (Coordinated Universal Time)

1 40032U 14033Y 26226.53247619 .00003678 00000+0 19624-3 0 9993 2 40032 98.0784 227.0866 0006806 351.7997 8.3122 15.15845012661505
UTC large
Height (km)
Speed (km/s)
/
Latitude / Longitude
Inclination (degrees)
Orbital Period (minutes)
Azimuth
Elevation
Range (km)
Doppler Factor

Next 0 passes for location: London (51.5072 / 0.1276)

No passes found over London.
QB50P2